Tracking 19709 objects as of 17-Jun-2019
HD Live streaming from Space Station
objects crossing your sky now

THORAD AGENA D DEB

Track THORAD AGENA D DEB now!
10-day predictions


NORAD ID: 42531
Int'l Code: 1970-025SM
Perigee: 1,043.3 km
Apogee: 1,124.0 km
Inclination: 99.5 °
Period: 106.8 minutes
Semi major axis: 7454 km
RCS: Unknown
Launch date: April 8, 1970
Source: United States (US)
Launch site: AIR FORCE WESTERN TEST RANGE (AFWTR)

Note: This is SATELLITE DEBRIS
aabbcc
Your satellite tracking list
Your tracking list is empty




NASA's NSSDC Master Catalog

Two Line Element Set (TLE):
1 42531U 70025SM  19164.65958514  .00000064  00000-0  16761-3 0  9997
2 42531  99.5344 320.3185 0054080 151.9434 269.6551 13.48847391725890
Source of the keplerian elements: AFSPC